全球星 M078星 (GLOBALSTAR M078)

导读 | 豆包AI

GLOBALSTAR M078是隶属于美国全球星(GlobalStar)系统的低轨移动通信卫星,于2013年2月6日发射升空。作为第二代全球星星座的组成部分,它延续了系统设计,运行在约1400公里高度的近地轨道,为全球提供数字语音、数据传输、短信息与漫游接入服务,填补地面通信基础设施盲区,支撑偏远地区与移动场景的互联互通需求,助力全球无缝移动通信覆盖。

Basic Information
目录编号:
39076
目录名称:
GLOBALSTAR M078
国际标识:
2013-005E
轨道中心:
EARTH
卫星名称:
全球星 M078星
卫星全名:
全球星 M078星 (GLOBALSTAR M078)
卫星状态:
在轨 (已飞行4834 天)
发射日期:
2013-02-06 UTC
国别 :
(GLOB)
星等 :
--
Orbit Information
数据来源 国际轨道数据 AOE轨道数据
星历时间 2026-05-03T11:29:53+0800
5小时前
查看轨道信息
2026-05-03T11:00:00+0800
5小时前
查看轨道信息
半长轴 7791.743km 7791.742km
偏心率 0.0000981 0.0000719
轨道倾角 51.988° 51.988°
近地点辐角 134.838° 142.361°
升交点赤经 60.769° 60.832°
平近点角 225.256° 123.393°
近地点 1412.841km 1413.044km
远地点 1414.371km 1414.166km
周期 114.081分钟 114.081分钟
每日圈数 12.622659 12.622661
Detailed Information
固有亮度:
5
最大亮度:
7.2
平衡模式:
三轴稳定
覆盖范围:
全球
运营商:
全球星公司
运营商所在国:
美国
使用方式:
暂无
Satellite Introduction
全球星星座由48颗卫星加8颗备份星组成。这些卫星分布在8个倾角为52度的圆形轨道平面上,每个轨道平面6颗卫星,另有1 颗备用星。轨道高度约为1414km,传输时延和处理时延小于300ms,整个系统的覆盖区为南北纬70度以内的地区。该卫星仍在工作。
2D Orbit Map
3D Orbit Map
Orbit Altitude Analysis Chart
Orbit Inclination Analysis Chart
Orbit Comprehensive Analysis Chart
View Comprehensive Chart